User: anonymous   Login
Location: Bergen
(60.3910°N, 5.3250°E)
Time: 14:56:29
(UTC+02:00)
Language:

Cosmos 1943 - Orbit

View from above orbital plane
View from above orbital plane
View from above satellite
View from above satellite

Ground track
Ground track

The orbit data is extracted from the following two-line orbital elements,

1 19119U 88039A   17145.62707760 +.00000161 +00000-0 +10749-3 0  9994
2 19119 071.0018 149.1595 0009319 092.5059 016.7221 14.15094120498632
Epoch (UTC): 25 May 2017 15:02:59
Eccentricity: 0.0009319
inclination: 71.0018°
perigee height: 835 km
apogee height: 849 km
right ascension of ascending node: 149.1595°
argument of perigee: 92.5059°
revolutions per day: 14.15094120
mean anomaly at epoch: 16.7221°
orbit number at epoch: 49863

The dashed part of the orbit path shows where the satellite is in the earth's shadow,  

DLR